Weather Service Report


761 
ASUS41 KALY 250310
RWRALY

NEW YORK STATE HOURLY WEATHER ROUNDUP
NATIONAL WEATHER SERVICE ALBANY NY
1100 PM EDT MON APR 24 2017

NOTE: "FAIR" INDICATES FEW OR NO CLOUDS BELOW 12,000 FEET WITH NO
SIGNIFICANT WEATHER AND/OR NO OBSTRUCTIONS TO VISIBILITY.

NYZ032-033-038>043-046>054-057>066-NYZ062>081-082-084-250400-
EAST

  
CITY           SKY/WX    TMP DP  RH WIND       PRES   REMARKS
ALBANY         CLOUDY    51  33  50 N7        30.16S                  
GLENS FALLS    CLEAR     46  31  55 NE8       30.18S                  
POUGHKEEPSIE   CLOUDY    58  33  39 SE5       30.12S                  
NEWBURGH       PTCLDY    57  37  47 SE12      30.14S                  
MONTGOMERY     CLOUDY    57  39  51 CALM      30.12S                  
WHITE PLAINS   CLOUDY    51  40  65 E6        30.13S                  
ISLIP          CLOUDY    52  47  83 E8        30.14S                  
NEW YORK CITY  CLOUDY    52  45  77 NE12      30.13F                  
CENTRAL PARK   CLOUDY    53  43  68 E9        30.16S                  
$$

NYZ005>009-017-018-044>046-055-056-250400-
CENTRAL

  
CITY           SKY/WX    TMP DP  RH WIND       PRES   REMARKS
FULTON         CLEAR     51  37  58 S3        30.08S                  
SYRACUSE       PTCLDY    55  38  52 E6        30.08R                  
ROME           CLEAR     56  39  53 E9        30.12R                  
ELMIRA         CLOUDY    54  43  66 E7        30.07S                  
BINGHAMTON     CLOUDY    55  32  41 SE6       30.09F                  
MONTICELLO     CLOUDY    54  34  47 E3        30.13F                  
$$

NYZ026>034-041>043-087-250400-
NORTH

  
CITY           SKY/WX    TMP DP  RH WIND       PRES   REMARKS
WATERTOWN      CLEAR     44  32  62 NE12      30.13F                  
FORT DRUM      NOT AVBL                                               
OGDENSBURG     FAIR      44  30  59 E6        30.20S                  
MASSENA        CLOUDY    43  25  49 E12       30.24S                  
SARANAC LAKE   CLEAR     38  28  67 E5        30.18S WCI  34          
PLATTSBURGH    CLEAR     40  24  53 NW8       30.25F WCI  34          
$$

NYZ001>004-010>016-019>021-085-250400-
WEST

  
CITY           SKY/WX    TMP DP  RH WIND       PRES   REMARKS
NIAGARA FALLS  CLEAR     50  34  54 E12       30.04F                  
BUFFALO        CLOUDY    50  35  56 E12       30.04F                  
DUNKIRK        CLOUDY    46  41  82 E3        30.00S                  
JAMESTOWN      CLOUDY    57  28  33 SE6       30.01S                  
WELLSVILLE     CLOUDY    57  30  35 SE9       30.06F                  
ROCHESTER      CLEAR     48  35  60 E6        30.09F                  
PENN YAN       CLOUDY    45  39  79 CALM      30.08F                  
$$

             KEY
       WCI = WIND CHILL INDEX
       VSB = VISIBILITY
       HX  = HEAT INDEX
$$
  

Return to Home page


Western Regional Climate Center, wrcc@dri.edu